Flag for U.S.A. Weather past 2 weeks in Seattle, Washington, U.S.A.

Now
72 °F

Clear.


Feels Like: 77 °F
Forecast: 61 / 81 °F
Wind: 3 mph from North

Location: Seattle Boeing Field

Current Time: Jul 27, 2014 at 11:28:29 PM

Latest Report: Jul 27, 2014 at 10:53 PM


Visibility: 10 mi

Pressure: 30.10 "Hg

Humidity: 53%

Dew point: 54 °F

Location of SeattleLocation

Historic Weather in Seattle — Graph

°F

Seattle temperature yesterday

Maximum temperature yesterday: 80 °F (at 4:53 PM)
Minimum temperature yesterday: 59 °F (at 4:53 AM)
Average temperature yesterday: 69 °F

Past Weeks' High & Low Weather Summary

 TemperatureHumidityPressure
High89 °F (Jul 16, 4:53 PM)87% (Jul 23, 7:53 AM)30.21 "Hg (Jul 23, 7:53 AM)
Low57 °F (Jul 18, 5:53 AM)27% (Jul 16, 4:53 PM)29.89 "Hg (Jul 16, 7:53 PM)
Average69 °F61%30.05 "Hg
* Reported Jul 12 9:53 PM — Jul 27 9:53 PM, Seattle, Weather by CustomWeather, © 2014

Note: Actual official high and low records may vary slightly from our data, if they occured in-between our weather recording intervals... More about our weather records

Advertising

Seattle weather history for previous 24 hours

 ConditionsComfort  
Time TempWeatherWind HumidityBarometerVisibility
9:53 PM
Jul 27
75 °FClear.No wind47%30.09 "Hg10 mi
8:53 PM76 °FSunny.5 mph43%30.08 "Hg10 mi
7:53 PM79 °FScattered clouds.8 mph39%30.07 "Hg10 mi
6:53 PM81 °FScattered clouds.8 mph35%30.07 "Hg10 mi
5:53 PM82 °FScattered clouds.9 mph35%30.07 "Hg10 mi
4:53 PM81 °FPassing clouds.9 mph38%30.09 "Hg10 mi
3:53 PM81 °FPassing clouds.12 mph39%30.09 "Hg10 mi
2:53 PM80 °FSunny.9 mph39%30.11 "Hg10 mi
1:53 PM79 °FPassing clouds.10 mph39%30.12 "Hg10 mi
12:53 PM77 °FSunny.8 mph44%30.14 "Hg10 mi
11:53 AM76 °FSunny.8 mph43%30.15 "Hg10 mi
10:53 AM72 °FSunny.8 mph52%30.16 "Hg10 mi
9:53 AM69 °FSunny.3 mph57%30.17 "Hg10 mi
8:53 AM66 °FSunny.6 mph63%30.19 "Hg10 mi
7:53 AM64 °FSunny.No wind65%30.19 "Hg10 mi
6:53 AM63 °FSunny.No wind65%30.18 "Hg10 mi
5:53 AM62 °FClear.No wind65%30.17 "Hg10 mi
4:53 AM62 °FClear.No wind67%30.17 "Hg10 mi
3:53 AM62 °FClear.No wind67%30.17 "Hg10 mi
2:53 AM63 °FClear.3 mph68%30.17 "Hg10 mi
1:53 AM64 °FClear.3 mph65%30.16 "Hg10 mi
12:53 AM65 °FClear.No wind63%30.16 "Hg10 mi
11:53 PM
Jul 26
66 °FClear.3 mph61%30.16 "Hg10 mi
Weather by CustomWeather, © 2014

See weather overviewHow to use our weather pages